CDT,Max TemperatureF,Mean TemperatureF,Min TemperatureF,Max Dew PointF,MeanDew PointF,Min DewpointF,Max Humidity, Mean Humidity, Min Humidity, Max Sea Level PressureIn, Mean Sea Level PressureIn, Min Sea Level PressureIn, Max VisibilityMiles, Mean VisibilityMiles, Min VisibilityMiles, Max Wind SpeedMPH, Mean Wind SpeedMPH, Max Gust SpeedMPH,PrecipitationIn, CloudCover, Events, WindDirDegrees
2011-10-1,71,56,41,46,40,36,87,59,27,30.30,30.24,30.19,10,9,2,9,2,,0.00,0,,75
2011-10-2,75,60,44,45,42,39,81,59,29,30.32,30.25,30.19,10,10,10,7,4,,0.00,0,,117
2011-10-3,78,62,46,48,44,39,82,55,29,30.29,30.24,30.20,10,10,10,9,5,,0.00,0,,146
2011-10-4,80,65,50,48,44,39,76,51,28,30.31,30.23,30.18,10,10,10,9,5,,0.00,0,,138
2011-10-5,78,64,51,48,42,39,62,47,28,30.24,30.18,30.11,10,10,10,15,6,,0.00,0,,135
2011-10-6,80,68,57,52,47,43,59,48,34,30.15,30.10,30.04,10,10,10,20,9,25,0.00,0,,141
2011-10-7,82,73,64,57,52,48,68,49,32,30.19,30.13,30.07,10,10,10,20,14,28,0.00,0,,143
2011-10-8,80,72,64,57,55,52,73,54,39,30.21,30.14,30.09,10,10,10,16,12,25,0.00,0,,135
2011-10-9,78,71,64,57,54,50,68,56,42,30.18,30.13,30.06,10,10,10,18,10,24,0.00,1,,118
2011-10-10,73,66,59,61,57,50,88,78,59,30.11,30.06,30.02,10,9,0,10,5,,0.29,6,,155
2011-10-11,78,68,59,63,60,55,94,81,57,30.02,29.95,29.87,10,8,1,14,4,17,0.07,6,Thunderstorm,126
2011-10-12,77,68,59,63,57,50,88,74,53,29.87,29.80,29.71,10,10,7,18,8,25,1.18,4,Thunderstorm,209
2011-10-13,71,61,51,50,46,39,82,58,35,29.95,29.88,29.81,10,10,10,18,11,25,0.00,0,,305
2011-10-14,75,60,46,50,43,39,81,57,36,30.04,29.98,29.93,10,10,10,10,4,,0.00,0,,316
2011-10-15,78,63,48,48,42,36,71,47,31,30.17,30.08,30.03,10,10,10,14,5,16,0.00,0,,127
2011-10-16,86,72,57,57,50,43,64,47,33,30.04,29.99,29.91,10,10,10,22,11,26,0.00,0,,197
2011-10-17,82,65,48,59,53,37,82,64,45,29.98,29.84,29.71,10,10,9,26,8,36,0.13,1,Thunderstorm,103
2011-10-18,59,52,44,45,38,30,93,66,41,30.02,29.96,29.80,10,10,5,25,15,32,0.00,5,,348
2011-10-19,53,43,33,30,26,19,81,55,30,30.04,30.00,29.97,10,10,10,25,10,31,0.00,0,,317
2011-10-20,57,42,28,30,27,21,80,57,33,30.13,30.07,30.03,10,10,10,17,5,22,0.00,0,,295
2011-10-21,71,52,33,39,35,30,87,56,27,30.24,30.17,30.13,10,10,10,8,3,,0.00,0,,136
2011-10-22,73,58,44,52,45,37,81,61,41,30.16,30.09,30.00,10,10,6,16,4,22,0.00,1,Thunderstorm,74
2011-10-23,71,60,48,55,51,45,94,74,53,30.11,30.04,29.91,10,8,0,22,7,38,0.00,2,,252
2011-10-24,78,63,48,57,52,46,94,70,42,30.23,30.16,30.12,10,9,0,13,5,,0.12,0,,176
2011-10-25,80,68,57,59,55,50,82,64,42,30.14,30.02,29.89,10,10,10,31,12,40,0.00,0,,172
2011-10-26,68,58,48,63,54,43,88,78,64,30.00,29.93,29.88,10,10,5,17,9,17,0.13,6,Thunderstorm,262
2011-10-27,50,47,44,45,41,37,87,80,66,30.15,30.08,30.00,10,10,8,15,8,22,0.40,8,Thunderstorm,22
2011-10-28,57,46,35,43,35,28,93,68,36,30.26,30.22,30.15,10,8,0,14,3,21,0.01,2,,344
2011-10-29,62,47,32,37,33,28,87,59,32,30.27,30.19,30.08,10,10,8,17,5,23,0.00,0,,180
2011-10-30,66,55,42,39,35,32,71,53,37,30.20,30.13,30.09,10,10,10,23,9,29,0.00,1,,208
2011-10-31,71,52,33,39,35,30,87,58,27,30.21,30.16,30.10,10,10,5,15,5,21,0.00,0,,171